[[{"header":{"parameterUnit":"m.s-1","parameterCategory":1,"la1":30.2991,"la2":30.254,"lo1":-89.0895,"lo2":-89.0444,"dy":0.0017,"dx":0.0017,"nx":28,"ny":28,"refTime":"2025-05-23T03:00:00:Z","depth":0,"parameterNumber":2,"parameterNumberName":"U-component_of_WINDS"},"data":[0,0,0,0,0,0,0,0,0,0,0,0,0,0,0,0,0,0,0,0,0,0,0,0,0,0,0,0,0,0,0,0,0,0,0,0,0,0,0,0,0,0,0,0,0,0,0,0,0,0,0,0,0,0,0,0,0,0,-0.6922,-0.6921,0,-0.6862,-0.6861,-0.6861,-0.6832,-0.6832,-0.6832,-0.6832,-0.677,-0.6768,-0.6766,0,0,0,0,0,0,0,0,0,0,0,0,0,-0.7011,-0.701,-0.6922,-0.6921,-0.6921,-0.6862,-0.6861,-0.6861,-0.6832,-0.6832,-0.6832,-0.6832,-0.677,-0.6768,-0.6766,0,0,0,0,0,0,0,0,0,0,0,0,0,-0.6964,-0.7009,-0.6922,-0.6899,-0.6897,-0.6862,-0.6861,-0.686,-0.6832,-0.6832,-0.6832,-0.6832,-0.6771,-0.6768,-0.6766,-0.675,0,0,-0.6758,-0.6757,0,0,0,0,0,0,0,0,-0.6967,-0.6961,-0.6903,-0.6901,-0.6898,-0.6854,-0.687,-0.6823,-0.6832,-0.6856,-0.6832,-0.6832,-0.6798,-0.6793,-0.6782,-0.6747,-0.6744,-0.6758,-0.6756,-0.6755,-0.6755,0,0,0,0,0,0,0,-0.697,-0.6963,-0.6898,-0.6903,-0.6899,-0.6892,-0.6885,-0.6861,-0.6828,-0.6854,-0.6852,-0.6845,-0.6796,-0.6784,-0.678,-0.6743,-0.6758,-0.6756,-0.6754,-0.6753,-0.6692,-0.6692,0,0,0,0,0,0,-0.6977,-0.6966,-0.69,-0.6897,-0.6933,-0.689,-0.6883,-0.6868,-0.6828,-0.6822,-0.6845,-0.6844,-0.6788,-0.6783,-0.6778,-0.6756,-0.6755,-0.6753,-0.6751,-0.6692,-0.6692,-0.6692,0,0,0,0,0,0,-0.6979,-0.6972,-0.6903,-0.6931,-0.6921,-0.6889,-0.6873,-0.6867,-0.6855,-0.6821,-0.6815,-0.6839,-0.6788,-0.6781,-0.6757,-0.6753,-0.6752,-0.6749,-0.6692,-0.6692,-0.6692,-0.6713,0,0,0,0,0,0,-0.6982,-0.6973,-0.6966,-0.6931,-0.692,-0.6883,-0.6872,-0.6866,-0.6851,-0.6849,-0.6814,-0.6808,-0.6788,-0.6761,-0.6754,-0.675,-0.6748,-0.6692,-0.6692,-0.6692,-0.6712,-0.6713,-0.6714,0,0,0,0,0,-0.6985,-0.6974,-0.6966,-0.6958,-0.6911,-0.6883,-0.6877,-0.6854,-0.6851,-0.6844,-0.6822,-0.6809,-0.6755,-0.6759,-0.6751,-0.6746,-0.6692,-0.6692,-0.6692,-0.6712,-0.6713,-0.6714,0,0,0,0,0,0,-0.701,-0.6969,-0.696,-0.6937,-0.6914,-0.6878,-0.6869,-0.6856,-0.6833,-0.6832,-0.6805,-0.6797,-0.6775,-0.6758,-0.6763,-0.6728,-0.6722,-0.6721,-0.674,-0.6741,-0.6742,-0.6746,-0.6745,0,0,0,0,0,-0.7013,-0.6993,-0.6959,-0.6942,-0.6931,-0.6902,-0.6889,-0.6873,-0.6848,-0.6838,-0.6814,-0.679,-0.6768,-0.6753,-0.6731,-0.671,-0.6701,-0.6702,-0.6703,-0.6704,-0.6703,-0.669,-0.669,-0.6691,-0.6691,-0.6691,0,0,-0.7018,-0.6993,-0.6983,-0.6946,-0.6926,-0.6907,-0.6894,-0.6873,-0.6858,-0.6835,-0.681,-0.6792,-0.6763,-0.6741,-0.6729,-0.6726,-0.6701,-0.6704,-0.6705,-0.6703,-0.669,-0.669,-0.669,-0.6691,-0.6691,-0.6691,0,0,-0.7018,-0.6997,-0.6981,-0.6962,-0.6932,-0.6913,-0.6909,-0.6876,-0.6863,-0.6838,-0.682,-0.6802,-0.6763,-0.6744,-0.6729,-0.6721,-0.6708,-0.6715,-0.672,-0.6708,-0.6708,-0.6708,-0.6705,-0.6705,-0.6714,-0.6714,-0.6714,0,-0.7028,-0.6998,-0.6974,-0.6955,-0.6939,-0.6917,-0.6901,-0.6883,-0.6847,-0.6837,-0.6834,-0.6785,-0.6764,-0.6737,-0.6735,-0.6724,-0.6718,-0.6719,-0.671,-0.671,-0.6709,-0.6706,-0.6705,-0.6715,-0.6715,-0.6715,-0.6714,0,-0.7012,-0.6992,-0.6982,-0.6948,-0.6932,-0.6914,-0.6888,-0.6874,-0.686,-0.6841,-0.6816,-0.679,-0.6762,-0.6755,-0.6741,-0.6725,-0.6723,-0.6715,-0.6709,-0.671,-0.6707,-0.6706,-0.6716,-0.6716,-0.6716,-0.6715,0,0,-0.7026,-0.6979,-0.6976,-0.6961,-0.6927,-0.691,-0.6891,-0.6864,-0.6852,-0.6829,-0.6812,-0.6781,-0.6773,-0.6756,-0.674,-0.6729,-0.6725,-0.6722,-0.6721,-0.6724,-0.6706,-0.6712,-0.6711,-0.6717,-0.6716,-0.6716,-0.6708,0,-0.702,-0.6986,-0.6964,-0.6938,-0.6918,-0.6898,-0.6881,-0.6858,-0.6841,-0.6821,-0.6801,-0.678,-0.6771,-0.6761,-0.675,-0.6728,-0.6721,-0.6728,-0.6701,-0.67,-0.6708,-0.671,-0.6716,-0.671,-0.6707,-0.6707,-0.6707,0,-0.701,-0.6987,-0.6959,-0.6927,-0.6918,-0.6904,-0.6877,-0.6859,-0.6833,-0.682,-0.6802,-0.6785,-0.6765,-0.676,-0.6731,-0.6737,-0.6724,-0.6712,-0.6711,-0.6707,-0.6703,-0.6706,-0.6708,-0.6707,-0.6704,-0.6705,-0.6705,0,-0.7022,-0.6984,-0.6963,-0.695,-0.6912,-0.6903,-0.6886,-0.686,-0.6845,-0.6822,-0.6812,-0.6787,-0.6773,-0.6753,-0.673,-0.673,-0.6703,-0.6697,-0.6693,-0.6693,-0.6688,-0.6688,-0.6687,-0.668,-0.668,-0.668,-0.668,0,-0.7019,-0.7002,-0.6968,-0.6954,-0.6935,-0.6911,-0.6893,-0.6875,-0.6852,-0.6834,-0.6815,-0.6799,-0.677,-0.6751,-0.6733,-0.6711,-0.6705,-0.6694,-0.669,-0.6696,-0.6697,-0.6687,-0.6687,-0.668,-0.668,-0.668,-0.668,0,-0.7029,-0.7005,-0.698,-0.6946,-0.6938,-0.6925,-0.6896,-0.6883,-0.6864,-0.6842,-0.6836,-0.6807,-0.6783,-0.6758,-0.6726,-0.6714,-0.6693,-0.6687,-0.6702,-0.6699,-0.6696,-0.6696,-0.6688,-0.6685,-0.668,-0.668,-0.668,0,-0.7028,-0.7015,-0.698,-0.6967,-0.6952,-0.6931,-0.6916,-0.6891,-0.6876,-0.6845,-0.6835,-0.681,-0.6789,-0.6752,-0.6727,-0.6702,-0.6695,-0.6694,-0.6691,-0.6698,-0.6695,-0.6696,-0.6694,-0.6695,-0.6695,-0.6695,-0.6695,0,-0.7029,-0.7018,-0.6997,-0.6972,-0.6954,-0.6933,-0.6911,-0.6902,-0.6873,-0.6857,-0.6832,-0.6816,-0.6783,-0.6758,-0.6731,-0.6714,-0.67,-0.6696,-0.6694,-0.67,-0.6709,-0.6704,-0.6704,-0.6697,-0.6697,-0.6696,-0.6696,-0.6696,-0.7034,-0.7021,-0.6995,-0.6972,-0.6953,-0.6933,-0.6918,-0.6898,-0.6877,-0.6849,-0.6835,-0.6811,-0.6785,-0.6747,-0.673,-0.671,-0.6706,-0.6703,-0.6702,-0.6701,-0.6703,-0.6713,-0.6705,-0.6705,-0.6705,-0.6705,-0.6705,0,-0.7034,-0.7016,-0.6995,-0.6965,-0.6947,-0.6936,-0.6911,-0.6897,-0.6875,-0.6852,-0.6832,-0.6804,-0.678,-0.6754,-0.6728,-0.6717,-0.671,-0.6712,-0.6712,-0.6708,-0.6708,-0.6713,-0.6718,-0.6718,-0.6718,-0.6718,-0.6718,-0.6718,-0.7031,-0.701,-0.6995,-0.6964,-0.6946,-0.6922,-0.6909,-0.689,-0.6872,-0.6842,-0.6822,-0.6805,-0.6781,-0.6753,-0.6731,-0.6724,-0.6715,-0.6718,-0.6709,-0.6709,-0.6708,-0.6707,-0.6712,-0.6716,-0.6716,-0.6711,-0.6711,-0.6711]},{"header":{"parameterUnit":"m.s-1","parameterCategory":1,"la1":30.2991,"la2":30.254,"lo1":-89.0895,"lo2":-89.0444,"dy":0.0017,"dx":0.0017,"nx":28,"ny":28,"refTime":"2025-05-23T03:00:00:Z","depth":0,"parameterNumber":3,"parameterNumberName":"V-component_of_WINDS"},"data":[0,0,0,0,0,0,0,0,0,0,0,0,0,0,0,0,0,0,0,0,0,0,0,0,0,0,0,0,0,0,0,0,0,0,0,0,0,0,0,0,0,0,0,0,0,0,0,0,0,0,0,0,0,0,0,0,0,0,4.0338,4.0338,0,4.0327,4.0327,4.0327,4.0271,4.0269,4.0268,4.0267,4.0255,4.0256,4.0257,0,0,0,0,0,0,0,0,0,0,0,0,0,4.0312,4.0313,4.0338,4.0338,4.0338,4.0327,4.0327,4.0327,4.0271,4.0269,4.0268,4.0266,4.0255,4.0256,4.0257,0,0,0,0,0,0,0,0,0,0,0,0,0,4.0314,4.0313,4.0338,4.0309,4.0306,4.0327,4.0327,4.0327,4.0271,4.0269,4.0267,4.0265,4.0255,4.0256,4.0258,4.0306,0,0,4.0262,4.0262,0,0,0,0,0,0,0,0,4.0314,4.0316,4.0313,4.0311,4.0308,4.0298,4.0313,4.032,4.0272,4.0284,4.0267,4.0264,4.0271,4.0271,4.0274,4.0306,4.0305,4.0262,4.0263,4.0263,4.0264,0,0,0,0,0,0,0,4.0314,4.0316,4.0334,4.0313,4.031,4.0296,4.0294,4.0314,4.0289,4.0283,4.0279,4.0278,4.0269,4.0272,4.0273,4.0305,4.0262,4.0263,4.0264,4.0265,4.0377,4.0379,0,0,0,0,0,0,4.0318,4.0316,4.0334,4.0334,4.0306,4.0298,4.0296,4.0303,4.0289,4.0285,4.028,4.0276,4.0271,4.0271,4.0272,4.0328,4.0263,4.0265,4.0266,4.0375,4.0378,4.038,0,0,0,0,0,0,4.0318,4.032,4.0335,4.0324,4.0324,4.0301,4.0309,4.0304,4.0307,4.0287,4.0282,4.0288,4.0269,4.027,4.0298,4.0327,4.0265,4.0267,4.0373,4.0376,4.0379,4.0441,0,0,0,0,0,0,4.0317,4.0321,4.0339,4.0324,4.0325,4.0361,4.0311,4.0305,4.0309,4.0304,4.0292,4.0289,4.0268,4.0297,4.03,4.0328,4.0268,4.037,4.0374,4.0378,4.0437,4.0446,4.0455,0,0,0,0,0,4.0317,4.0357,4.034,4.0342,4.0347,4.0363,4.0363,4.0338,4.0312,4.033,4.0317,4.0289,4.0324,4.03,4.0303,4.0332,4.0368,4.0373,4.0378,4.0433,4.0445,4.0455,0,0,0,0,0,0,4.0375,4.0354,4.0335,4.0372,4.037,4.0353,4.0375,4.0352,4.0357,4.0351,4.032,4.0318,4.0351,4.0344,4.0318,4.0379,4.0341,4.0347,4.0382,4.0393,4.0402,4.0403,4.0269,0,0,0,0,0,4.0392,4.0406,4.0387,4.0421,4.0421,4.0399,4.0404,4.0386,4.0382,4.038,4.0369,4.0367,4.0377,4.0385,4.0393,4.0436,4.0433,4.0457,4.0467,4.0474,4.0479,4.0502,4.0513,4.0396,4.0396,4.0396,0,0,4.0427,4.0418,4.0429,4.0433,4.0429,4.0444,4.0398,4.0416,4.0428,4.0383,4.0409,4.0401,4.0396,4.0432,4.0447,4.0428,4.0511,4.048,4.0486,4.0487,4.0508,4.0519,4.0529,4.0399,4.0399,4.0398,0,0,4.05,4.0494,4.0522,4.0519,4.0513,4.0498,4.0505,4.0492,4.0486,4.0511,4.0478,4.0491,4.051,4.0508,4.0509,4.0582,4.0557,4.0586,4.0633,4.0655,4.0664,4.0672,4.0698,4.0708,4.0591,4.0591,4.0592,0,4.0544,4.0566,4.0539,4.056,4.0563,4.0524,4.0552,4.055,4.0548,4.0551,4.0529,4.0552,4.0546,4.0581,4.0599,4.0601,4.0608,4.0587,4.0665,4.0673,4.068,4.0705,4.0714,4.0595,4.0595,4.0594,4.0594,0,4.0621,4.0637,4.0661,4.0659,4.0665,4.069,4.0667,4.0676,4.0657,4.0644,4.0671,4.0663,4.0669,4.0676,4.0657,4.0708,4.0696,4.0671,4.0632,4.0695,4.0718,4.0727,4.06,4.0599,4.0598,4.0597,0,0,4.0729,4.0714,4.0723,4.0722,4.0713,4.0725,4.0748,4.0754,4.0763,4.0763,4.0781,4.0798,4.0775,4.0776,4.0757,4.0777,4.0836,4.0748,4.0748,4.0765,4.0892,4.0911,4.0923,4.0819,4.082,4.0822,4.0892,0,4.0799,4.0837,4.0813,4.0855,4.087,4.0833,4.0853,4.085,4.084,4.085,4.0838,4.0851,4.0818,4.0819,4.0837,4.0825,4.0861,4.0819,4.0836,4.0837,4.0838,4.0934,4.0955,4.1022,4.0901,4.0902,4.0903,0,4.0884,4.0888,4.0932,4.0921,4.0926,4.0944,4.0948,4.0959,4.0956,4.0946,4.0949,4.0925,4.0947,4.091,4.094,4.0912,4.0918,4.0913,4.0915,4.0916,4.0874,4.0937,4.1042,4.1052,4.0917,4.0916,4.0915,0,4.0959,4.0975,4.1003,4.1004,4.0992,4.1006,4.1001,4.0996,4.1001,4.1005,4.1008,4.1015,4.1018,4.1024,4.1003,4.0977,4.1036,4.0996,4.1029,4.103,4.1043,4.1042,4.115,4.1047,4.1047,4.1046,4.1046,0,4.1038,4.1066,4.1036,4.1054,4.1084,4.1058,4.1088,4.108,4.1076,4.1091,4.106,4.1075,4.1046,4.1059,4.1043,4.107,4.1072,4.1065,4.1061,4.1068,4.1069,4.1071,4.1066,4.1049,4.1048,4.1048,4.1047,0,4.1127,4.1108,4.1136,4.1123,4.112,4.1143,4.1132,4.1147,4.1135,4.1154,4.1158,4.1138,4.1151,4.113,4.1141,4.113,4.1169,4.1157,4.117,4.1166,4.12,4.1198,4.1313,4.1327,4.1215,4.1216,4.1217,0,4.1179,4.1199,4.1189,4.1197,4.1194,4.1208,4.1213,4.1188,4.1195,4.1193,4.1209,4.1219,4.1226,4.1249,4.1235,4.1244,4.1232,4.1272,4.1233,4.124,4.1233,4.1232,4.1234,4.128,4.1281,4.1282,4.1283,0,4.1273,4.1263,4.1272,4.1278,4.1286,4.129,4.1291,4.1299,4.1273,4.1283,4.1296,4.1301,4.1312,4.1323,4.1328,4.1324,4.1299,4.1296,4.1304,4.1311,4.1318,4.1315,4.1192,4.1293,4.1292,4.1291,4.1291,4.129,4.1345,4.1362,4.1357,4.1368,4.1367,4.1369,4.1383,4.1373,4.1383,4.139,4.1375,4.1392,4.1388,4.1392,4.1391,4.1404,4.1386,4.1398,4.1401,4.1404,4.1409,4.1316,4.1404,4.1404,4.1404,4.1404,4.1403,0,4.1438,4.1433,4.1444,4.1447,4.1456,4.1433,4.1433,4.1443,4.1458,4.1457,4.1464,4.148,4.149,4.1478,4.1486,4.1499,4.1488,4.1502,4.1501,4.1501,4.1424,4.1417,4.1511,4.1511,4.1511,4.1511,4.1511,4.1511,4.1487,4.1515,4.1504,4.1531,4.1526,4.1543,4.1545,4.1547,4.1546,4.1564,4.1573,4.1565,4.156,4.1567,4.1576,4.1572,4.1577,4.1595,4.1588,4.1516,4.1506,4.1496,4.1488,4.1596,4.1596,4.1663,4.1663,4.1664]}]]